Notices

What's New in latest Release from April 7th, 2021:

- Updated Glossary, including Speed of Maximum Gust, and Total Hourly Precipitation

- Updated national and regional climate services offices contacts and prices information

- Addition of station inventory lists for 1981-2010, 1971-2000, and 1961-1990 Normals.

If you haven't already, please take our survey and provide feedback about our website: https://eccc.sondage-survey.ca/f/LanguageSelection.aspx?s=442ca660-fcf1-47c0-95a9-59707d6fd709

Hourly Data Report for August 12, 2018

TORONTO CITY
ONTARIO
Current Station Operator: ECCC - MSC

43°40'00.000" N
79°24'00.000" W
112.50 m
6158355
71508
XTO

Download Data

Hourly Data (August 2018)
Hourly Data Report for August 12, 2018
TIME
LST
Temp Definition
°C
Dew Point Definition
°C
Rel Hum Definition
%
Precip. Amount Definition
mm

Wind Dir Definition
10's deg

Wind Spd Definition
km/h
Visibility Definition
km
Stn Press Definition
kPa
Hmdx Definition


Wind Chill Definition


Weather Definition


00:00 22.2 13.6 58 0.0 LegendMM LegendMM   100.35 25   LegendNANA
01:00 21.8 14.1 61 0.0 LegendMM LegendMM   100.33 25   LegendNANA
02:00 22.0 13.7 59 0.0 LegendMM LegendMM   100.36 25   LegendNANA
03:00 21.5 13.6 61 0.0 LegendMM LegendMM   100.37 25   LegendNANA
04:00 21.0 13.2 61 0.0 LegendMM LegendMM   100.39     LegendNANA
05:00 20.6 13.8 65 0.0 LegendMM LegendMM   100.46     LegendNANA
06:00 21.5 12.8 58 0.0 LegendMM LegendMM   100.50     LegendNANA
07:00 21.7 12.9 57 0.0 LegendMM LegendMM   100.56     LegendNANA
08:00 22.8 14.7 60 0.0 LegendMM LegendMM   100.59 27   LegendNANA
09:00 24.4 14.8 55 0.0 LegendMM LegendMM   100.61 28   LegendNANA
10:00 26.1 14.8 50 0.0 LegendMM LegendMM   100.65 30   LegendNANA
11:00 26.8 15.4 50 0.0 LegendMM LegendMM   100.65 31   LegendNANA
12:00 27.0 14.0 45 0.0 LegendMM LegendMM   100.63 30   LegendNANA
13:00 27.0 12.7 41 0.0 LegendMM LegendMM   100.63 30   LegendNANA
14:00 27.0 12.0 39 0.0 LegendMM LegendMM   100.58 29   LegendNANA
15:00 27.0 12.9 42 0.0 LegendMM LegendMM   100.55 30   LegendNANA
16:00 26.0 12.2 42 0.0 LegendMM LegendMM   100.53 28   LegendNANA
17:00 25.8 12.8 45 0.0 LegendMM LegendMM   100.53 28   LegendNANA
18:00 25.4 11.9 43 0.0 LegendMM LegendMM   100.51 28   LegendNANA
19:00 25.4 11.0 40 0.0 LegendMM LegendMM   100.52 27   LegendNANA
20:00 23.9 12.4 49 0.0 LegendMM LegendMM   100.55 26   LegendNANA
21:00 23.8 11.7 47 0.0 LegendMM LegendMM   100.59 26   LegendNANA
22:00 22.6 12.6 53 0.0 LegendMM LegendMM   100.59 25   LegendNANA
23:00 21.9 13.1 57 0.0 LegendMM LegendMM   100.60 25   LegendNANA

Notes on Data Quality.

Legend

  • E = Estimated
  • M = Missing
  • NA = Not Available*
  • [empty] = Indicates an unobserved value
Date modified: